Location: *
(58.7167°N, 26.1833°E)
Time: 11:26:52
(UTC+00:00)

Cosmos 1371 Rocket - Pass Details

Date: 25 August 2019
Orbit: 753 x 791 km, 74.0° (Epoch: 22 September)

Event Time Altitude Azimuth Distance (km) Brightness Sun altitude
Exits shadow 23:08:36 41° 182° (S) 1,118 4.3 -19.9°
Maximum altitude 23:10:23 67° 115° (ESE) 840 4.1 -19.9°
Drops below altitude 10° 23:15:40 10° 34° (NE) 2,344 7.6 -19.7°
Sets 23:18:05 0° 32° (NNE) 3,282 8.7 -19.6°
